Weather History for Presque Isle, ME

Change the Weather History Date:

Thursday, October 27, 2011

  Actual Average Record
Temperature  
Mean Temperature 34 °F -  
Max Temperature 41 °F 48 °F 70 °F (1946)
Min Temperature 28 °F 31 °F 15 °F (1936)
Degree Days  
Heating Degree Days 30    
Moisture  
Dew Point 22 °F    
Average Humidity 63    
Maximum Humidity 80    
Minimum Humidity 45    
Precipitation  
Precipitation 0.00 in - - ()
Sea Level Pressure  
Sea Level Pressure 29.68 in    
Wind  
Wind Speed 7 mph (WNW)    
Max Wind Speed 14 mph    
Max Gust Speed 18 mph    
Visibility 10 miles    
Events      
Averages and records for this station are not official NWS values.
T = Trace of Precipitation, MM = Missing Value Source: NWS Daily Summary

Daily Weather History Graph

Daily Weather History Graph

Search for Another Location

Airport:

Trip Planner

Search our weather history database for the weather conditions in past years. The results will help you decide how hot, cold, wet, or windy it might be!

Date:

Astronomy

Oct. 27, 2011 Rise Set
Actual Time 7:06 AM EDT 5:24 PM EDT
Civil Twilight 6:35 AM EDT 5:56 PM EDT
Nautical Twilight 5:59 AM EDT 6:31 PM EDT
Astronomical Twilight 5:24 AM EDT 7:06 PM EDT
Moon 8:12 AM EDT (10/27) 5:42 PM EDT (10/27)
Length of Visible Light 11h 20m
Length of Day
10h 18m
New Moon, 1% of the Moon is Illuminated
Oct 27
New Moon
Nov 2
First Quarter
Nov 10
Full
Nov 18
Last Quarter
Nov 25
New

Hourly Weather History & Observations

Time (EDT) Temp. Windchill Dew Point Humidity Pressure Visibility Wind Dir Wind Speed Gust Speed Precip Events Conditions
12:15 AM 28.4 °F 23.3 °F 23.0 °F 80% 29.69 in 10.0 mi WSW 4.6 mph - N/A   Clear
12:55 AM 28.4 °F 23.3 °F 23.0 °F 80% 29.70 in 10.0 mi WSW 4.6 mph - N/A   Clear
1:15 AM 28.4 °F 22.2 °F 21.2 °F 74% 29.68 in 10.0 mi WSW 5.8 mph - N/A   Clear
1:35 AM 28.4 °F 22.2 °F 21.2 °F 74% 29.68 in 10.0 mi WSW 5.8 mph - N/A   Clear
1:55 AM 28.4 °F 23.3 °F 21.2 °F 74% 29.68 in 10.0 mi WSW 4.6 mph - N/A   Clear
2:15 AM 28.4 °F - 21.2 °F 74% 29.68 in 10.0 mi Calm Calm - N/A   Clear
2:35 AM 28.4 °F - 21.2 °F 74% 29.68 in 10.0 mi Calm Calm - N/A   Clear
2:55 AM 28.4 °F 21.2 °F 23.0 °F 80% 29.67 in 10.0 mi West 6.9 mph - N/A   Clear
3:15 AM 28.4 °F 23.3 °F 21.2 °F 74% 29.67 in 10.0 mi WSW 4.6 mph - N/A   Clear
3:35 AM 28.4 °F 22.2 °F 21.2 °F 74% 29.67 in 10.0 mi West 5.8 mph - N/A   Clear
3:55 AM 28.4 °F 22.2 °F 21.2 °F 74% 29.68 in 10.0 mi West 5.8 mph - N/A   Clear
4:15 AM 28.4 °F 23.3 °F 21.2 °F 74% 29.68 in 10.0 mi West 4.6 mph - N/A   Clear
4:35 AM 28.4 °F 24.6 °F 21.2 °F 74% 29.68 in 10.0 mi West 3.5 mph - N/A   Clear
4:55 AM 28.4 °F 22.2 °F 21.2 °F 74% 29.68 in 10.0 mi West 5.8 mph - N/A   Clear
5:15 AM 28.4 °F 23.3 °F 21.2 °F 74% 29.68 in 10.0 mi West 4.6 mph - N/A   Clear
5:35 AM 28.4 °F 21.2 °F 21.2 °F 74% 29.68 in 10.0 mi West 6.9 mph - N/A   Clear
5:55 AM 28.4 °F 22.2 °F 21.2 °F 74% 29.68 in 10.0 mi WNW 5.8 mph - N/A   Clear
6:35 AM 28.4 °F 21.2 °F 19.4 °F 69% 29.68 in 10.0 mi West 6.9 mph - N/A   Clear
6:55 AM 30.2 °F 23.4 °F 19.4 °F 64% 29.68 in 10.0 mi West 6.9 mph - N/A   Clear
7:15 AM 28.4 °F 19.7 °F 19.4 °F 69% 29.68 in 10.0 mi West 9.2 mph - N/A   Clear
7:35 AM 28.4 °F 19.1 °F 19.4 °F 69% 29.69 in 10.0 mi West 10.4 mph - N/A   Clear
7:55 AM 30.2 °F 21.9 °F 21.2 °F 69% 29.69 in 10.0 mi West 9.2 mph - N/A   Clear
8:15 AM 30.2 °F 21.3 °F 21.2 °F 69% 29.69 in 10.0 mi West 10.4 mph - N/A   Clear
8:35 AM 32.0 °F 23.6 °F 21.2 °F 64% 29.70 in 10.0 mi West 10.4 mph - N/A   Clear
8:55 AM 33.8 °F 24.3 °F 21.2 °F 60% 29.70 in 10.0 mi West 13.8 mph - N/A   Clear
9:15 AM 33.8 °F 27.0 °F 21.2 °F 60% 29.70 in 10.0 mi WNW 8.1 mph - N/A   Clear
9:35 AM 35.6 °F 28.0 °F 21.2 °F 56% 29.70 in 10.0 mi WNW 10.4 mph - N/A   Clear
9:55 AM 35.6 °F 28.0 °F 23.0 °F 60% 29.70 in 10.0 mi WNW 10.4 mph 18.4 mph N/A   Clear
10:15 AM 37.4 °F 29.8 °F 23.0 °F 56% 29.70 in 10.0 mi NW 11.5 mph 18.4 mph N/A   Clear
10:35 AM 37.4 °F 29.3 °F 23.0 °F 56% 29.69 in 10.0 mi NW 12.7 mph 16.1 mph N/A   Clear
10:55 AM 37.4 °F 29.3 °F 24.8 °F 60% 29.69 in 10.0 mi NNW 12.7 mph 17.3 mph N/A   Clear
11:15 AM 39.2 °F 32.0 °F 24.8 °F 56% 29.69 in 10.0 mi NNW 11.5 mph - N/A   Clear
11:35 AM 39.2 °F 32.5 °F 24.8 °F 56% 29.69 in 10.0 mi WNW 10.4 mph - N/A   Partly Cloudy
11:55 AM 39.2 °F 32.5 °F 24.8 °F 56% 29.69 in 10.0 mi NW 10.4 mph - N/A   Partly Cloudy
12:15 PM 39.2 °F 31.6 °F 24.8 °F 56% 29.68 in 10.0 mi NNW 12.7 mph 16.1 mph N/A   Partly Cloudy
12:35 PM 41.0 °F 35.2 °F 24.8 °F 53% 29.67 in 10.0 mi NNW 9.2 mph - N/A   Partly Cloudy
12:55 PM 41.0 °F 33.9 °F 24.8 °F 53% 29.67 in 10.0 mi North 12.7 mph - N/A   Partly Cloudy
1:15 PM 41.0 °F 35.8 °F 23.0 °F 49% 29.66 in 10.0 mi WNW 8.1 mph - N/A   Partly Cloudy
1:35 PM 41.0 °F 34.7 °F 21.2 °F 45% 29.66 in 10.0 mi NW 10.4 mph - N/A   Mostly Cloudy
1:55 PM 41.0 °F 35.8 °F 23.0 °F 49% 29.66 in 10.0 mi WNW 8.1 mph - N/A   Mostly Cloudy
2:15 PM 41.0 °F 33.9 °F 24.8 °F 53% 29.66 in 10.0 mi North 12.7 mph - N/A   Mostly Cloudy
2:35 PM 41.0 °F 35.2 °F 24.8 °F 53% 29.66 in 10.0 mi WNW 9.2 mph - N/A   Overcast
2:55 PM 41.0 °F 35.2 °F 23.0 °F 49% 29.67 in 10.0 mi NNW 9.2 mph - N/A   Mostly Cloudy
3:15 PM 41.0 °F 33.9 °F 24.8 °F 53% 29.67 in 10.0 mi North 12.7 mph - N/A   Scattered Clouds
3:35 PM 39.2 °F 31.6 °F 23.0 °F 52% 29.66 in 10.0 mi NNW 12.7 mph - N/A   Clear
3:55 PM 39.2 °F 32.0 °F 21.2 °F 49% 29.66 in 10.0 mi NNW 11.5 mph - N/A   Clear
4:35 PM 39.2 °F 33.6 °F 23.0 °F 52% 29.66 in 10.0 mi NNW 8.1 mph - N/A   Clear
4:55 PM 39.2 °F 33.0 °F 23.0 °F 52% 29.67 in 10.0 mi NNW 9.2 mph - N/A   Partly Cloudy
5:15 PM 37.4 °F 32.8 °F 23.0 °F 56% 29.67 in 10.0 mi North 5.8 mph - N/A   Clear
5:35 PM 37.4 °F 32.8 °F 23.0 °F 56% 29.66 in 10.0 mi North 5.8 mph - N/A   Clear
5:55 PM 37.4 °F 32.8 °F 23.0 °F 56% 29.66 in 10.0 mi North 5.8 mph - N/A   Clear
6:15 PM 37.4 °F 32.1 °F 21.2 °F 52% 29.68 in 10.0 mi North 6.9 mph - N/A   Clear
6:35 PM 35.6 °F 28.6 °F 23.0 °F 60% 29.68 in 10.0 mi North 9.2 mph - N/A   Clear
6:55 PM 35.6 °F 29.2 °F 23.0 °F 60% 29.67 in 10.0 mi North 8.1 mph - N/A   Clear
7:15 PM 35.6 °F 29.9 °F 21.2 °F 56% 29.68 in 10.0 mi North 6.9 mph - N/A   Partly Cloudy
7:35 PM 35.6 °F 29.2 °F 23.0 °F 60% 29.68 in 10.0 mi North 8.1 mph - N/A   Mostly Cloudy
7:55 PM 35.6 °F 30.7 °F 23.0 °F 60% 29.67 in 10.0 mi NNW 5.8 mph - N/A   Overcast
8:15 PM 35.6 °F 31.7 °F 21.2 °F 56% 29.68 in 10.0 mi NNW 4.6 mph - N/A   Overcast
8:35 PM 35.6 °F 29.9 °F 21.2 °F 56% 29.69 in 10.0 mi NW 6.9 mph - N/A   Overcast
8:55 PM 35.6 °F 31.7 °F 21.2 °F 56% 29.70 in 10.0 mi WNW 4.6 mph - N/A   Overcast
9:15 PM 35.6 °F 30.7 °F 21.2 °F 56% 29.70 in 10.0 mi NW 5.8 mph - N/A   Mostly Cloudy
9:35 PM 33.8 °F 27.7 °F 21.2 °F 60% 29.70 in 10.0 mi NW 6.9 mph - N/A   Partly Cloudy
9:55 PM 33.8 °F 29.6 °F 21.2 °F 60% 29.70 in 10.0 mi NW 4.6 mph - N/A   Clear
10:15 PM 33.8 °F 27.7 °F 19.4 °F 56% 29.70 in 10.0 mi NW 6.9 mph - N/A   Clear
10:36 PM 33.8 °F 28.6 °F 19.4 °F 56% 29.70 in 10.0 mi NW 5.8 mph - N/A   Clear
10:55 PM 33.8 °F 28.6 °F 19.4 °F 56% 29.70 in 10.0 mi NW 5.8 mph - N/A   Clear
11:15 PM 33.8 °F 29.6 °F 19.4 °F 56% 29.70 in 10.0 mi NW 4.6 mph - N/A   Clear
11:35 PM 33.8 °F 28.6 °F 19.4 °F 56% 29.70 in 10.0 mi NW 5.8 mph - N/A   Clear
11:55 PM 33.8 °F 30.8 °F 19.4 °F 56% 29.70 in 10.0 mi WNW 3.5 mph - N/A   Clear